星链-30519 (STARLINK-30519 )

导读

STARLINK-30519是美国SpaceX星链(Starlink)计划中的卫星,于2023年9月30日发射。星链计划旨在搭建全球卫星互联网星座,为全球多地提供低延迟、高速率的网络服务。该卫星加入低轨卫星星座组网,补充完善星链系统的覆盖能力,推动全球互联网络基础设施建设。

基本信息
目录编号:
57985
目录名称:
STARLINK-30519
国际标识:
2023-151X
轨道中心:
EARTH
卫星名称:
星链-30519
卫星全名:
星链-30519 (STARLINK-30519 )
卫星状态:
在轨 (已飞行994 天)
发射日期:
2023-09-30 UTC
国别 :
美国 (US)
星等 :
--
轨道信息
数据来源 国际轨道数据
星历时间: 2026-06-19T15:35:18+0800
1天前
查看轨道信息
半长轴: 6861.196km
偏心率: 0.0001385
轨道倾角: 43.003°
近地点辐角 268.094°
升交点赤经 136.935°
平近点角 91.975°
近地点: 482.108km
远地点: 484.01km
周期: 94.267分钟
每日圈数: 15.275767
详细信息
固有亮度:
5
最大亮度:
0.3
卫星平台:
Starlink v2.0 mini
覆盖范围:
全球
运营商:
太空探索技术公司
运营商所在国:
美国
制造商(研发单位):
太空探索技术公司
制造商所在国:
美国
使用方式:
暂无
卫星简介
星链(Starlink)计划是由太空探索技术公司(SpaceX)提出的一个巨型低轨卫星互联网星座项目,计划在2019年至2024年间在太空搭建由约1.2万颗卫星组成的“星链”网络,其中1584颗将部署在地球上空550千米处的近地轨道,并从2020年开始工作。该卫星仍在工作。
2D轨道图
3D轨道图
轨道高度分析图
轨道倾角分析图
轨道综合分析图
查看轨道综合分析图